[[{"header":{"parameterUnit":"m.s-1","parameterCategory":2,"la1":30.2991,"la2":30.254,"lo1":-89.0895,"lo2":-89.0444,"dy":0.0017,"dx":0.0017,"nx":28,"ny":28,"refTime":"2024-03-29T21:00:00:Z","depth":"0","parameterNumber":2,"parameterNumberName":"U-component_of_CURRENTS"},"data":[0,0,0,0,0,0,0,0,0,0,0,0,0,0,0,0,0,0,0,0,0,0,0,0,0,0,0,0,0,0,0,0,0,0,0,0,0,0,0,0,0,0,0,0,0,0,0,0,0,0,0,0,0,0,0,0,0,0,-0.3464,-0.3465,0,-0.3462,-0.3462,-0.3462,-0.3404,-0.3402,-0.3401,-0.34,-0.342,-0.3421,-0.3423,0,0,0,0,0,0,0,0,0,0,0,0,0,-0.3425,-0.3426,-0.3464,-0.3465,-0.3465,-0.3462,-0.3462,-0.3461,-0.3404,-0.3402,-0.3401,-0.3399,-0.3419,-0.3421,-0.3423,0,0,0,0,0,0,0,0,0,0,0,0,0,-0.3432,-0.3426,-0.3464,-0.3438,-0.3436,-0.3462,-0.3462,-0.3461,-0.3404,-0.3402,-0.34,-0.3399,-0.3418,-0.3421,-0.3423,-0.3476,0,0,-0.3431,-0.3432,0,0,0,0,0,0,0,0,-0.3432,-0.3433,-0.3441,-0.344,-0.3437,-0.3434,-0.3455,-0.3468,-0.3405,-0.3413,-0.34,-0.3398,-0.343,-0.3431,-0.343,-0.3476,-0.3477,-0.3431,-0.3433,-0.3434,-0.3434,0,0,0,0,0,0,0,-0.3431,-0.3433,-0.346,-0.3442,-0.344,-0.3429,-0.3427,-0.3457,-0.343,-0.3412,-0.3409,-0.3414,-0.3428,-0.3428,-0.3431,-0.3478,-0.3431,-0.3433,-0.3435,-0.3436,-0.3502,-0.3503,0,0,0,0,0,0,-0.3439,-0.3433,-0.3461,-0.3461,-0.3433,-0.3431,-0.3429,-0.3434,-0.3429,-0.3427,-0.3415,-0.3411,-0.3425,-0.3428,-0.3431,-0.3387,-0.3434,-0.3436,-0.3438,-0.3502,-0.3502,-0.3503,0,0,0,0,0,0,-0.3439,-0.3442,-0.3461,-0.3449,-0.3451,-0.3434,-0.344,-0.3435,-0.3428,-0.3432,-0.3429,-0.3412,-0.3423,-0.3428,-0.3438,-0.3392,-0.3437,-0.3439,-0.3502,-0.3502,-0.3503,-0.3368,0,0,0,0,0,0,-0.3437,-0.3442,-0.3445,-0.3449,-0.3452,-0.3457,-0.3442,-0.3437,-0.3436,-0.343,-0.3429,-0.3428,-0.3422,-0.3434,-0.344,-0.3396,-0.3441,-0.3502,-0.3502,-0.3503,-0.3372,-0.3364,-0.3357,0,0,0,0,0,-0.3436,-0.3446,-0.3445,-0.3448,-0.3458,-0.3457,-0.3456,-0.3436,-0.3437,-0.3425,-0.3426,-0.3428,-0.3441,-0.3436,-0.3444,-0.3399,-0.3501,-0.3502,-0.3502,-0.3375,-0.3365,-0.3357,0,0,0,0,0,0,-0.3424,-0.3442,-0.344,-0.3453,-0.3447,-0.3447,-0.3446,-0.3444,-0.3437,-0.3437,-0.3438,-0.3438,-0.3424,-0.3456,-0.3451,-0.3427,-0.3471,-0.3473,-0.3372,-0.3363,-0.3355,-0.3308,-0.3444,0,0,0,0,0,-0.3429,-0.3442,-0.3447,-0.3455,-0.3457,-0.3457,-0.3457,-0.3446,-0.3447,-0.3441,-0.3433,-0.3441,-0.3438,-0.3435,-0.3444,-0.3445,-0.3442,-0.3426,-0.3418,-0.341,-0.3382,-0.3348,-0.3332,-0.3505,-0.3505,-0.3505,0,0,-0.3427,-0.3439,-0.3445,-0.3453,-0.3454,-0.3422,-0.345,-0.3451,-0.3408,-0.345,-0.3398,-0.3419,-0.3438,-0.341,-0.3408,-0.3425,-0.3363,-0.3411,-0.3404,-0.3379,-0.3346,-0.3328,-0.3313,-0.3505,-0.3505,-0.3505,0,0,-0.3398,-0.3442,-0.3418,-0.3415,-0.3416,-0.3417,-0.3417,-0.3412,-0.3393,-0.3376,-0.3377,-0.3361,-0.3384,-0.3345,-0.3343,-0.3314,-0.3327,-0.3342,-0.3251,-0.3217,-0.32,-0.3186,-0.3156,-0.314,-0.3332,-0.3331,-0.3331,0,-0.3382,-0.3357,-0.341,-0.3373,-0.3363,-0.3407,-0.3359,-0.3352,-0.3339,-0.3328,-0.3345,-0.3327,-0.3333,-0.3272,-0.3243,-0.3283,-0.3285,-0.3271,-0.3199,-0.3185,-0.3173,-0.3146,-0.3129,-0.3325,-0.3326,-0.3326,-0.3327,0,-0.3303,-0.329,-0.3285,-0.3248,-0.3251,-0.3233,-0.3235,-0.3228,-0.3238,-0.3225,-0.3192,-0.3193,-0.3181,-0.3176,-0.3192,-0.3109,-0.3145,-0.319,-0.3204,-0.3145,-0.3123,-0.3108,-0.3316,-0.3318,-0.332,-0.3321,0,0,-0.3209,-0.3224,-0.3208,-0.3192,-0.3188,-0.3185,-0.3144,-0.3117,-0.3104,-0.3081,-0.3043,-0.2996,-0.3022,-0.3021,-0.3036,-0.2986,-0.2886,-0.3042,-0.3043,-0.2978,-0.2815,-0.2717,-0.2693,-0.2924,-0.2921,-0.2919,-0.2831,0,-0.3105,-0.3043,-0.3067,-0.3001,-0.2976,-0.3024,-0.2993,-0.2989,-0.3003,-0.2988,-0.2975,-0.2958,-0.2958,-0.2965,-0.2903,-0.2923,-0.2844,-0.2905,-0.2912,-0.2911,-0.2802,-0.267,-0.2573,-0.2475,-0.2818,-0.2815,-0.2813,0,-0.2965,-0.296,-0.289,-0.2914,-0.2907,-0.2876,-0.2884,-0.2862,-0.2869,-0.2889,-0.2863,-0.2891,-0.2817,-0.2846,-0.2754,-0.2806,-0.2774,-0.2766,-0.2764,-0.2702,-0.2783,-0.2596,-0.2437,-0.2422,-0.2792,-0.2793,-0.2795,0,-0.2854,-0.2823,-0.2782,-0.2777,-0.2804,-0.2789,-0.2802,-0.2819,-0.2823,-0.2828,-0.285,-0.2793,-0.2793,-0.273,-0.27,-0.2739,-0.2611,-0.2679,-0.2538,-0.2534,-0.246,-0.2453,-0.225,-0.2558,-0.2558,-0.2559,-0.2559,0,-0.272,-0.2679,-0.2736,-0.2709,-0.2679,-0.2726,-0.2701,-0.2723,-0.2758,-0.2752,-0.279,-0.277,-0.2766,-0.2714,-0.267,-0.2538,-0.2579,-0.2464,-0.2475,-0.2414,-0.2403,-0.24,-0.2448,-0.2555,-0.2556,-0.2557,-0.2557,0,-0.2578,-0.261,-0.2575,-0.2613,-0.2622,-0.2601,-0.265,-0.2646,-0.2702,-0.2701,-0.2706,-0.2748,-0.2676,-0.2638,-0.2557,-0.2497,-0.2339,-0.2332,-0.2253,-0.2252,-0.21,-0.2146,-0.1965,-0.191,-0.2157,-0.2154,-0.2151,0,-0.2496,-0.2467,-0.2501,-0.2491,-0.2498,-0.25,-0.2506,-0.2586,-0.2598,-0.2662,-0.265,-0.2626,-0.2563,-0.2415,-0.2297,-0.2156,-0.2183,-0.2,-0.2018,-0.2004,-0.2067,-0.2115,-0.2088,-0.1888,-0.1883,-0.1879,-0.1876,0,-0.2348,-0.237,-0.2359,-0.235,-0.235,-0.2364,-0.2387,-0.2405,-0.2494,-0.2504,-0.2498,-0.2461,-0.234,-0.2155,-0.1996,-0.1911,-0.1949,-0.1912,-0.1916,-0.1808,-0.1829,-0.1815,-0.206,-0.1841,-0.1844,-0.1847,-0.1849,-0.185,-0.2236,-0.2206,-0.2208,-0.2183,-0.2199,-0.2209,-0.2171,-0.223,-0.2234,-0.2224,-0.2278,-0.2172,-0.206,-0.1813,-0.1722,-0.1559,-0.1653,-0.1528,-0.1578,-0.1623,-0.1555,-0.1698,-0.1486,-0.1487,-0.1488,-0.1489,-0.149,0,-0.2083,-0.2068,-0.2044,-0.2018,-0.198,-0.2043,-0.2065,-0.2014,-0.1969,-0.1988,-0.1933,-0.1789,-0.1608,-0.1526,-0.1353,-0.1266,-0.1268,-0.1255,-0.1319,-0.1304,-0.1427,-0.1399,-0.1134,-0.1134,-0.1134,-0.1134,-0.1134,-0.1134,-0.1998,-0.1923,-0.1916,-0.18,-0.1784,-0.1693,-0.1677,-0.1641,-0.1624,-0.1512,-0.1439,-0.1417,-0.136,-0.137,-0.1226,-0.116,-0.1162,-0.1108,-0.1156,-0.1288,-0.132,-0.135,-0.1329,-0.1055,-0.1055,-0.0983,-0.0982,-0.0982]},{"header":{"parameterUnit":"m.s-1","parameterCategory":2,"la1":30.2991,"la2":30.254,"lo1":-89.0895,"lo2":-89.0444,"dy":0.0017,"dx":0.0017,"nx":28,"ny":28,"refTime":"2024-03-29T21:00:00:Z","depth":"0","parameterNumber":3,"parameterNumberName":"V-component_of_CURRENTS"},"data":[0,0,0,0,0,0,0,0,0,0,0,0,0,0,0,0,0,0,0,0,0,0,0,0,0,0,0,0,0,0,0,0,0,0,0,0,0,0,0,0,0,0,0,0,0,0,0,0,0,0,0,0,0,0,0,0,0,0,-0.0306,-0.0305,0,-0.022,-0.0219,-0.0218,-0.0155,-0.0154,-0.0154,-0.0153,0.0013,0.0016,0.002,0,0,0,0,0,0,0,0,0,0,0,0,0,-0.0336,-0.0336,-0.0306,-0.0305,-0.0304,-0.022,-0.0219,-0.0217,-0.0155,-0.0154,-0.0154,-0.0153,0.0011,0.0016,0.0021,0,0,0,0,0,0,0,0,0,0,0,0,0,-0.0293,-0.0336,-0.0306,-0.0263,-0.0259,-0.022,-0.0219,-0.0217,-0.0155,-0.0154,-0.0153,-0.0153,0.001,0.0016,0.0021,0.0046,0,0,0.004,0.0042,0,0,0,0,0,0,0,0,-0.0295,-0.0292,-0.0271,-0.0266,-0.0261,-0.0198,-0.0168,-0.0126,-0.0155,-0.0193,-0.0153,-0.0153,-0.0052,-0.0041,-0.0025,0.0053,0.0061,0.004,0.0044,0.0047,0.0048,0,0,0,0,0,0,0,-0.0299,-0.0294,-0.027,-0.027,-0.0264,-0.0221,-0.0215,-0.016,-0.0125,-0.019,-0.0185,-0.0178,-0.0048,-0.0031,-0.0021,0.0063,0.004,0.0046,0.0049,0.0052,0.0194,0.0194,0,0,0,0,0,0,-0.0317,-0.0298,-0.0273,-0.0268,-0.0278,-0.0222,-0.0215,-0.0218,-0.0127,-0.0113,-0.0178,-0.0175,-0.0042,-0.0028,-0.0015,0.0007,0.0047,0.0052,0.0056,0.0194,0.0194,0.0194,0,0,0,0,0,0,-0.0318,-0.0316,-0.0277,-0.0281,-0.0273,-0.0223,-0.0226,-0.0217,-0.0201,-0.0119,-0.0104,-0.0173,-0.0041,-0.0023,0.0023,0.0014,0.0055,0.006,0.0194,0.0194,0.0194,0.0058,0,0,0,0,0,0,-0.0319,-0.0317,-0.0327,-0.0283,-0.0274,-0.0265,-0.0227,-0.0216,-0.0198,-0.0193,-0.011,-0.0094,-0.0039,0.0013,0.0028,0.0023,0.0065,0.0194,0.0194,0.0194,0.0062,0.0053,0.0046,0,0,0,0,0,-0.0321,-0.0344,-0.0328,-0.0325,-0.0289,-0.0266,-0.0258,-0.0217,-0.0199,-0.02,-0.0146,-0.0096,0.0027,0.0017,0.0036,0.0032,0.0193,0.0194,0.0194,0.0066,0.0055,0.0046,0,0,0,0,0,0,-0.0367,-0.0338,-0.032,-0.0335,-0.0306,-0.0256,-0.0256,-0.0226,-0.0185,-0.0179,-0.0102,-0.0082,-0.0046,0.0017,0.0004,0.0078,0.0122,0.0126,0.0018,0.0009,0.0001,-0.0003,0.007,0,0,0,0,0,-0.0382,-0.0391,-0.0351,-0.0364,-0.0353,-0.0305,-0.0291,-0.0264,-0.0221,-0.0203,-0.0147,-0.008,-0.0029,0.0006,0.006,0.0099,0.0161,0.0114,0.0106,0.0098,0.011,0.017,0.0167,0.0196,0.0196,0.0196,0,0,-0.0404,-0.039,-0.0395,-0.0374,-0.0349,-0.0341,-0.0295,-0.0283,-0.0275,-0.019,-0.0166,-0.0113,-0.0027,0.0008,0.0032,0.006,0.0124,0.0099,0.0091,0.0108,0.017,0.0167,0.0164,0.0196,0.0196,0.0196,0,0,-0.0451,-0.0441,-0.0458,-0.0439,-0.0409,-0.0378,-0.0379,-0.0333,-0.0311,-0.0283,-0.0222,-0.0176,-0.0095,-0.0039,0.0001,-0.0012,0.007,0.0011,-0.0026,0.003,0.0027,0.0026,0.0093,0.0099,0.0015,0.0015,0.0015,0,-0.0477,-0.049,-0.0459,-0.0466,-0.0455,-0.04,-0.0407,-0.038,-0.0326,-0.0306,-0.0291,-0.0178,-0.0116,-0.006,-0.0065,-0.0032,0.0019,-0.0007,0.0016,0.0016,0.0017,0.0086,0.0094,0.0008,0.0009,0.001,0.001,0,-0.0527,-0.0534,-0.0546,-0.0534,-0.0519,-0.052,-0.0475,-0.046,-0.0428,-0.0388,-0.034,-0.0265,-0.0188,-0.0169,-0.012,-0.0077,-0.0038,-0.0016,0.0029,0.0005,0.0081,0.0091,-0.0001,0.0001,0.0003,0.0005,0,0,-0.0594,-0.0582,-0.0586,-0.0586,-0.0553,-0.0547,-0.0538,-0.0503,-0.0489,-0.0443,-0.0413,-0.0339,-0.029,-0.0238,-0.0174,-0.0123,-0.0082,-0.007,-0.0064,-0.0023,0.0051,0.01,0.0118,-0.0064,-0.0063,-0.0062,0.0096,0,-0.0638,-0.0667,-0.0644,-0.0663,-0.0668,-0.062,-0.0613,-0.0575,-0.0532,-0.0491,-0.0414,-0.0364,-0.0318,-0.0284,-0.023,-0.0109,-0.0057,-0.0126,0.0087,0.0095,0.0124,0.013,0.0147,0.0291,0.0108,0.011,0.0111,0,-0.0689,-0.07,-0.0727,-0.0716,-0.0714,-0.0714,-0.0683,-0.0669,-0.0598,-0.0562,-0.0499,-0.0429,-0.0335,-0.0305,-0.0126,-0.0172,-0.007,0.0013,0.0021,0.0128,0.0164,0.0292,0.0319,0.0438,0.0129,0.0127,0.0126,0,-0.0742,-0.0755,-0.0777,-0.0776,-0.0757,-0.0758,-0.0744,-0.069,-0.0674,-0.0599,-0.0565,-0.0457,-0.0377,-0.0259,-0.0077,-0.0101,0.0126,0.0116,0.0255,0.026,0.0352,0.0363,0.0508,0.0232,0.0231,0.0231,0.023,0,-0.0791,-0.0811,-0.0806,-0.0819,-0.0846,-0.081,-0.0815,-0.0786,-0.073,-0.0691,-0.0602,-0.0528,-0.0362,-0.0209,-0.0077,0.0144,0.0134,0.0264,0.0307,0.0305,0.031,0.0481,0.0522,0.0237,0.0235,0.0234,0.0233,0,-0.084,-0.0837,-0.0866,-0.0866,-0.087,-0.0889,-0.0874,-0.0871,-0.0807,-0.075,-0.0726,-0.056,-0.0349,-0.0171,0.0064,0.0168,0.0437,0.0427,0.0422,0.0461,0.0665,0.0697,0.0911,0.0996,0.059,0.0592,0.0594,0,-0.0862,-0.0884,-0.0911,-0.0936,-0.0939,-0.0956,-0.0966,-0.0922,-0.0902,-0.0751,-0.0718,-0.0508,-0.0326,0.0035,0.0248,0.0493,0.0574,0.064,0.0587,0.0697,0.0765,0.0775,0.0831,0.0659,0.0661,0.0663,0.0664,0,-0.0906,-0.0917,-0.0943,-0.0997,-0.1022,-0.1047,-0.1044,-0.1035,-0.0948,-0.0857,-0.0669,-0.0508,-0.0152,0.0157,0.0458,0.0588,0.0722,0.0684,0.0805,0.0844,0.0861,0.0957,0.0538,0.0681,0.0679,0.0678,0.0677,0.0676,-0.0934,-0.0968,-0.1003,-0.1052,-0.109,-0.1111,-0.1108,-0.1054,-0.0981,-0.0791,-0.0642,-0.0338,0.0056,0.0492,0.065,0.0937,0.0891,0.0999,0.1035,0.1041,0.1104,0.0725,0.0903,0.0903,0.0903,0.0902,0.0902,0,-0.0958,-0.0998,-0.1054,-0.1107,-0.1151,-0.1154,-0.1139,-0.1083,-0.0954,-0.0729,-0.0508,-0.0011,0.0377,0.0725,0.1113,0.1268,0.1291,0.1343,0.1358,0.1403,0.1086,0.1068,0.1282,0.1282,0.1281,0.1281,0.1281,0.1281,-0.097,-0.1028,-0.106,-0.114,-0.1174,-0.1186,-0.1164,-0.1031,-0.0859,-0.0472,-0.0141,0.0129,0.0603,0.1183,0.1541,0.1571,0.1713,0.1695,0.179,0.1552,0.1522,0.1493,0.1487,0.1785,0.1785,0.2087,0.209,0.2092]}],[{"header":{"parameterUnit":"m.s-1","parameterCategory":2,"la1":30.2991,"la2":30.254,"lo1":-89.0895,"lo2":-89.0444,"dy":0.0017,"dx":0.0017,"nx":28,"ny":28,"refTime":"2024-03-29T21:00:00:Z","depth":"2","parameterNumber":2,"parameterNumberName":"U-component_of_CURRENTS"},"data":[0,0,0,0,0,0,0,0,0,0,0,0,0,0,0,0,0,0,0,0,0,0,0,0,0,0,0,0,0,0,0,0,0,0,0,0,0,0,0,0,0,0,0,0,0,0,0,0,0,0,0,0,0,0,0,0,0,0,-0.272,-0.2721,0,-0.2779,-0.2779,-0.278,-0.278,-0.2779,-0.2779,-0.2778,-0.2791,-0.2792,-0.2793,0,0,0,0,0,0,0,0,0,0,0,0,0,-0.2632,-0.2634,-0.272,-0.2721,-0.2722,-0.2779,-0.2779,-0.278,-0.278,-0.2779,-0.2779,-0.2778,-0.2791,-0.2792,-0.2793,0,0,0,0,0,0,0,0,0,0,0,0,0,-0.2676,-0.2634,-0.272,-0.2731,-0.2733,-0.2779,-0.2779,-0.278,-0.278,-0.2779,-0.2778,-0.2778,-0.2791,-0.2792,-0.2793,-0.2815,0,0,-0.2797,-0.2797,0,0,0,0,0,0,0,0,-0.2673,-0.2679,-0.2729,-0.2731,-0.2733,-0.2774,-0.2753,-0.279,-0.278,-0.2759,-0.2778,-0.2777,-0.2784,-0.2785,-0.2794,-0.2815,-0.2816,-0.2797,-0.2797,-0.2798,-0.2798,0,0,0,0,0,0,0,-0.267,-0.2676,-0.274,-0.273,-0.2733,-0.2742,-0.2747,-0.276,-0.2771,-0.2761,-0.2762,-0.2773,-0.2784,-0.2793,-0.2794,-0.2816,-0.2797,-0.2798,-0.2798,-0.2799,-0.2838,-0.2838,0,0,0,0,0,0,-0.2669,-0.2673,-0.2739,-0.2742,-0.2704,-0.2744,-0.2749,-0.2759,-0.2772,-0.2775,-0.2774,-0.2773,-0.2792,-0.2793,-0.2795,-0.2793,-0.2798,-0.2799,-0.28,-0.2838,-0.2838,-0.2838,0,0,0,0,0,0,-0.2667,-0.2674,-0.2736,-0.2712,-0.2721,-0.2747,-0.2757,-0.2761,-0.2778,-0.2783,-0.2784,-0.2789,-0.2791,-0.2793,-0.2809,-0.2794,-0.2799,-0.2801,-0.2837,-0.2838,-0.2838,-0.2807,0,0,0,0,0,0,-0.2664,-0.2673,-0.2683,-0.2712,-0.2722,-0.276,-0.2758,-0.2762,-0.2787,-0.2787,-0.2797,-0.2797,-0.2791,-0.2807,-0.281,-0.2796,-0.2801,-0.2837,-0.2838,-0.2838,-0.2807,-0.2806,-0.2805,0,0,0,0,0,-0.2661,-0.2676,-0.2683,-0.2691,-0.2734,-0.276,-0.2766,-0.278,-0.2789,-0.2794,-0.2803,-0.2797,-0.2813,-0.2809,-0.2812,-0.2798,-0.2837,-0.2837,-0.2838,-0.2808,-0.2806,-0.2805,0,0,0,0,0,0,-0.2634,-0.2679,-0.2687,-0.2712,-0.2734,-0.2761,-0.2775,-0.279,-0.2805,-0.2805,-0.2809,-0.2809,-0.2813,-0.2821,-0.2817,-0.2813,-0.2821,-0.2823,-0.2797,-0.2796,-0.2795,-0.2753,-0.2802,0,0,0,0,0,-0.2637,-0.266,-0.2696,-0.2711,-0.2728,-0.2755,-0.2772,-0.2781,-0.2799,-0.2806,-0.2815,-0.2822,-0.2819,-0.2821,-0.2825,-0.2833,-0.281,-0.2825,-0.2824,-0.2823,-0.2793,-0.276,-0.2751,-0.2841,-0.2841,-0.2841,0,0,-0.2635,-0.2656,-0.2673,-0.2708,-0.2727,-0.274,-0.2762,-0.2787,-0.2784,-0.2805,-0.281,-0.2822,-0.2823,-0.2819,-0.2821,-0.2823,-0.279,-0.2824,-0.2822,-0.2792,-0.2759,-0.275,-0.2742,-0.2841,-0.2841,-0.2841,0,0,-0.2623,-0.2658,-0.2669,-0.2689,-0.2721,-0.2737,-0.2748,-0.2783,-0.2787,-0.2805,-0.2805,-0.2802,-0.283,-0.2802,-0.2797,-0.2796,-0.2786,-0.2816,-0.2772,-0.2741,-0.2732,-0.2724,-0.2693,-0.2682,-0.2814,-0.2814,-0.2814,0,-0.2615,-0.2625,-0.2674,-0.2681,-0.2691,-0.2736,-0.2736,-0.2751,-0.2782,-0.2779,-0.2801,-0.2804,-0.2806,-0.2768,-0.2762,-0.2785,-0.2777,-0.2775,-0.2736,-0.2727,-0.272,-0.2689,-0.2677,-0.2812,-0.2812,-0.2813,-0.2813,0,-0.2598,-0.2614,-0.2622,-0.2642,-0.2663,-0.2672,-0.2703,-0.2718,-0.2742,-0.2751,-0.2742,-0.2747,-0.2741,-0.2746,-0.2751,-0.2699,-0.2714,-0.2738,-0.2731,-0.2708,-0.2678,-0.2667,-0.281,-0.2811,-0.2811,-0.2812,0,0,-0.2551,-0.2601,-0.2599,-0.2604,-0.2641,-0.2654,-0.2659,-0.2666,-0.2668,-0.2687,-0.2676,-0.2655,-0.2668,-0.2661,-0.2668,-0.2634,-0.2575,-0.2663,-0.2662,-0.2614,-0.251,-0.2417,-0.2396,-0.2603,-0.26,-0.2599,-0.2513,0,-0.2512,-0.2514,-0.2549,-0.2547,-0.2553,-0.2597,-0.26,-0.2616,-0.2638,-0.2647,-0.2633,-0.2634,-0.2634,-0.2641,-0.2601,-0.2599,-0.2543,-0.2595,-0.2552,-0.2549,-0.2455,-0.2377,-0.2237,-0.2139,-0.2502,-0.25,-0.2499,0,-0.2461,-0.2475,-0.2466,-0.2503,-0.2511,-0.2516,-0.2534,-0.2545,-0.2565,-0.2587,-0.2576,-0.2595,-0.2546,-0.2565,-0.2486,-0.2531,-0.2496,-0.2482,-0.248,-0.2385,-0.2433,-0.2221,-0.2105,-0.2479,-0.2481,-0.2482,-0.2483,0,-0.2379,-0.2409,-0.2397,-0.2408,-0.2459,-0.2459,-0.2484,-0.2515,-0.2526,-0.2546,-0.2566,-0.253,-0.2525,-0.2474,-0.2439,-0.2472,-0.2357,-0.2407,-0.2272,-0.2268,-0.2127,-0.2112,-0.2307,-0.2307,-0.2307,-0.2307,-0.2307,0,-0.2305,-0.2295,-0.2362,-0.2355,-0.2352,-0.241,-0.2407,-0.2439,-0.2479,-0.2478,-0.2524,-0.2502,-0.2504,-0.2457,-0.2417,-0.2291,-0.2331,-0.2218,-0.2217,-0.2115,-0.2101,-0.2388,-0.2398,-0.2304,-0.2305,-0.2305,-0.2306,0,-0.2197,-0.224,-0.2237,-0.2294,-0.231,-0.2306,-0.2367,-0.2369,-0.2431,-0.2432,-0.244,-0.2474,-0.2407,-0.2382,-0.2306,-0.2249,-0.2157,-0.2098,-0.1974,-0.1957,-0.2099,-0.2109,-0.1939,-0.1934,-0.193,-0.1927,-0.1925,0,-0.2134,-0.2124,-0.218,-0.2181,-0.22,-0.2221,-0.2233,-0.2318,-0.233,-0.2386,-0.237,-0.2348,-0.2282,-0.2149,-0.2046,-0.1927,-0.2021,-0.1737,-0.1745,-0.2032,-0.2051,-0.2067,-0.2083,-0.1563,-0.1558,-0.1554,-0.155,0,-0.2015,-0.2042,-0.2048,-0.2061,-0.2072,-0.2093,-0.2124,-0.2137,-0.2222,-0.2226,-0.2203,-0.2162,-0.2054,-0.186,-0.1732,-0.1653,-0.1752,-0.164,-0.1946,-0.168,-0.1671,-0.1693,-0.1721,-0.1511,-0.1514,-0.1517,-0.152,-0.1521,-0.1917,-0.1899,-0.1918,-0.1914,-0.1938,-0.1945,-0.1907,-0.1953,-0.1947,-0.1911,-0.197,-0.1841,-0.181,-0.1514,-0.1405,-0.1325,-0.145,-0.1399,-0.1416,-0.1437,-0.1409,-0.1394,-0.1177,-0.1179,-0.1181,-0.1182,-0.1183,0,-0.178,-0.1777,-0.1771,-0.1763,-0.1731,-0.1797,-0.1806,-0.1737,-0.1665,-0.1659,-0.1594,-0.1378,-0.1248,-0.1221,-0.1027,-0.0982,-0.1008,-0.0949,-0.0998,-0.1036,-0.1071,-0.1029,-0.0694,-0.0692,-0.0691,-0.069,0,0,-0.1704,-0.1648,-0.165,-0.1553,-0.1547,-0.1454,-0.1426,-0.1349,-0.1308,-0.1168,-0.1087,-0.1153,-0.1175,-0.0933,-0.0875,-0.0752,-0.0891,-0.0712,-0.1104,-0.12,-0.1232,-0.1325,-0.1302,0,0,0,0,0]},{"header":{"parameterUnit":"m.s-1","parameterCategory":2,"la1":30.2991,"la2":30.254,"lo1":-89.0895,"lo2":-89.0444,"dy":0.0017,"dx":0.0017,"nx":28,"ny":28,"refTime":"2024-03-29T21:00:00:Z","depth":"2","parameterNumber":3,"parameterNumberName":"V-component_of_CURRENTS"},"data":[0,0,0,0,0,0,0,0,0,0,0,0,0,0,0,0,0,0,0,0,0,0,0,0,0,0,0,0,0,0,0,0,0,0,0,0,0,0,0,0,0,0,0,0,0,0,0,0,0,0,0,0,0,0,0,0,0,0,-0.0499,-0.0498,0,-0.0428,-0.0427,-0.0426,-0.0367,-0.0366,-0.0366,-0.0365,-0.0256,-0.0253,-0.0251,0,0,0,0,0,0,0,0,0,0,0,0,0,-0.0528,-0.0528,-0.0499,-0.0498,-0.0497,-0.0428,-0.0427,-0.0426,-0.0367,-0.0366,-0.0365,-0.0365,-0.0256,-0.0254,-0.0251,0,0,0,0,0,0,0,0,0,0,0,0,0,-0.0492,-0.0528,-0.0499,-0.046,-0.0456,-0.0428,-0.0427,-0.0426,-0.0367,-0.0366,-0.0365,-0.0364,-0.0257,-0.0254,-0.025,-0.0246,0,0,-0.0239,-0.0238,0,0,0,0,0,0,0,0,-0.0494,-0.0491,-0.0466,-0.0463,-0.0458,-0.0406,-0.0397,-0.0364,-0.0367,-0.04,-0.0365,-0.0364,-0.0303,-0.0296,-0.0284,-0.0241,-0.0236,-0.0239,-0.0237,-0.0235,-0.0234,0,0,0,0,0,0,0,-0.0497,-0.0493,-0.047,-0.0466,-0.046,-0.0427,-0.0421,-0.039,-0.0356,-0.0397,-0.0393,-0.0386,-0.03,-0.0288,-0.0281,-0.0235,-0.0239,-0.0236,-0.0234,-0.0232,-0.0155,-0.0155,0,0,0,0,0,0,-0.0511,-0.0496,-0.0472,-0.0468,-0.0475,-0.0427,-0.0421,-0.0423,-0.0357,-0.0347,-0.0387,-0.0384,-0.0294,-0.0285,-0.0277,-0.0247,-0.0235,-0.0232,-0.023,-0.0154,-0.0155,-0.0155,0,0,0,0,0,0,-0.0512,-0.051,-0.0475,-0.048,-0.0473,-0.0428,-0.0431,-0.0422,-0.0407,-0.035,-0.0339,-0.038,-0.0293,-0.0282,-0.0249,-0.0243,-0.0231,-0.0227,-0.0154,-0.0154,-0.0155,-0.0201,0,0,0,0,0,0,-0.0513,-0.0511,-0.0519,-0.0482,-0.0474,-0.0462,-0.0431,-0.0421,-0.0404,-0.0399,-0.0341,-0.033,-0.0292,-0.0255,-0.0246,-0.0238,-0.0225,-0.0154,-0.0154,-0.0155,-0.0199,-0.0202,-0.0205,0,0,0,0,0,-0.0514,-0.0531,-0.052,-0.0517,-0.0487,-0.0463,-0.0456,-0.0419,-0.0405,-0.0402,-0.0362,-0.0331,-0.0249,-0.0252,-0.0241,-0.0233,-0.0154,-0.0154,-0.0155,-0.0198,-0.0202,-0.0205,0,0,0,0,0,0,-0.0549,-0.0526,-0.0513,-0.0522,-0.0496,-0.0453,-0.045,-0.0426,-0.0393,-0.0388,-0.0335,-0.0321,-0.029,-0.0259,-0.0265,-0.0211,-0.0195,-0.0193,-0.0232,-0.0235,-0.0238,-0.0241,-0.0222,0,0,0,0,0,-0.0563,-0.0571,-0.0535,-0.0544,-0.0533,-0.0494,-0.0481,-0.0456,-0.0422,-0.0406,-0.0364,-0.032,-0.0284,-0.0259,-0.0225,-0.0197,-0.0157,-0.0184,-0.0187,-0.019,-0.0185,-0.0129,-0.0126,-0.0155,-0.0155,-0.0155,0,0,-0.0579,-0.0569,-0.0572,-0.0553,-0.053,-0.0516,-0.0484,-0.0469,-0.0454,-0.04,-0.0371,-0.0333,-0.0281,-0.0249,-0.0231,-0.022,-0.0161,-0.019,-0.0193,-0.0186,-0.0129,-0.0126,-0.0123,-0.0155,-0.0155,-0.0155,0,0,-0.0609,-0.0606,-0.0614,-0.0596,-0.0568,-0.0542,-0.054,-0.0497,-0.0475,-0.0448,-0.0403,-0.0361,-0.0311,-0.0262,-0.0235,-0.0234,-0.0184,-0.0227,-0.0235,-0.0182,-0.0179,-0.0176,-0.0124,-0.0116,-0.0222,-0.0222,-0.0222,0,-0.0626,-0.0634,-0.0612,-0.061,-0.0597,-0.0556,-0.0552,-0.0526,-0.0477,-0.0457,-0.0446,-0.0359,-0.0314,-0.026,-0.0255,-0.0239,-0.0204,-0.0227,-0.0186,-0.0182,-0.0178,-0.0125,-0.0115,-0.0224,-0.0224,-0.0224,-0.0224,0,-0.0653,-0.0656,-0.0661,-0.0644,-0.0629,-0.0622,-0.0581,-0.0563,-0.0536,-0.0499,-0.0451,-0.039,-0.0333,-0.0313,-0.0281,-0.0229,-0.0212,-0.0202,-0.0178,-0.0178,-0.0122,-0.0111,-0.0228,-0.0227,-0.0226,-0.0226,0,0,-0.0696,-0.0682,-0.0683,-0.068,-0.0646,-0.0638,-0.0618,-0.0581,-0.0565,-0.0515,-0.0482,-0.0411,-0.0372,-0.0338,-0.0289,-0.0236,-0.0174,-0.0209,-0.0205,-0.0159,-0.0056,-0.003,-0.0015,-0.016,-0.0158,-0.0157,-0.003,0,-0.0719,-0.0732,-0.0711,-0.0714,-0.0713,-0.0673,-0.0658,-0.062,-0.0581,-0.054,-0.0469,-0.0424,-0.0384,-0.0357,-0.0296,-0.0205,-0.0148,-0.021,-0.0061,-0.0056,-0.0034,-0.0002,-0.0027,0.0086,-0.0019,-0.0017,-0.0015,0,-0.0745,-0.0752,-0.0763,-0.075,-0.0745,-0.0738,-0.0708,-0.0688,-0.062,-0.0587,-0.0524,-0.0468,-0.0375,-0.0353,-0.0191,-0.0235,-0.0148,-0.0079,-0.0073,-0.0023,-0.0009,0.007,0.011,0.0003,0.0002,0.0,-0.0001,0,-0.0788,-0.0785,-0.08,-0.0795,-0.0773,-0.077,-0.0756,-0.0703,-0.0688,-0.0615,-0.0589,-0.048,-0.0419,-0.0305,-0.0156,-0.0172,0.0019,0.0015,0.0121,0.0124,0.0148,0.015,0.0128,0.0128,0.0127,0.0127,0.0127,0,-0.0819,-0.0831,-0.0824,-0.0833,-0.0852,-0.0816,-0.0817,-0.0788,-0.0736,-0.0707,-0.0617,-0.0562,-0.0404,-0.0277,-0.0156,0.0027,0.0026,0.0135,0.0165,0.013,0.0129,0.0089,0.0083,0.0132,0.0131,0.013,0.0129,0,-0.0859,-0.0854,-0.0875,-0.087,-0.0874,-0.0888,-0.0875,-0.087,-0.0813,-0.0771,-0.075,-0.0608,-0.0435,-0.0271,-0.0063,0.0035,0.0195,0.0257,0.0206,0.0228,0.0262,0.0251,0.0387,0.0389,0.0391,0.0392,0.0393,0,-0.0877,-0.0894,-0.0916,-0.0939,-0.094,-0.0954,-0.0964,-0.0922,-0.0907,-0.0791,-0.077,-0.0598,-0.0456,-0.0145,0.0057,0.0281,0.0268,0.0374,0.0341,0.0276,0.0292,0.0278,0.0266,0.0356,0.0357,0.0358,0.0358,0,-0.0915,-0.0925,-0.0946,-0.0997,-0.1021,-0.1044,-0.1046,-0.1043,-0.0972,-0.0908,-0.0774,-0.0649,-0.0343,-0.0087,0.019,0.0305,0.0332,0.0395,0.0364,0.0285,0.0255,0.0267,0.0255,0.0364,0.0364,0.0363,0.0363,0.0363,-0.0942,-0.0973,-0.1004,-0.1051,-0.1088,-0.1114,-0.1117,-0.1082,-0.1036,-0.0896,-0.0783,-0.0547,-0.0323,0.0097,0.0279,0.0441,0.0426,0.0458,0.0452,0.0447,0.0411,0.0386,0.0513,0.0513,0.0514,0.0514,0.0514,0,-0.0965,-0.1003,-0.1054,-0.1107,-0.1152,-0.1155,-0.1155,-0.1116,-0.1034,-0.0867,-0.0704,-0.0416,-0.0129,0.0111,0.0384,0.0526,0.0497,0.0537,0.0472,0.0465,0.0459,0.042,0.0527,0.0527,0.0528,0.0529,0,0,-0.0979,-0.1032,-0.1061,-0.1143,-0.118,-0.1202,-0.1191,-0.1098,-0.0969,-0.0781,-0.0586,-0.0366,-0.0085,0.0109,0.0281,0.0424,0.0401,0.0426,0.0398,0.0292,0.0284,0.0394,0.0325,0,0,0,0,0]}],[{"header":{"parameterUnit":"m.s-1","parameterCategory":2,"la1":30.2991,"la2":30.254,"lo1":-89.0895,"lo2":-89.0444,"dy":0.0017,"dx":0.0017,"nx":28,"ny":28,"refTime":"2024-03-29T21:00:00:Z","depth":"4","parameterNumber":2,"parameterNumberName":"U-component_of_CURRENTS"},"data":[0,0,0,0,0,0,0,0,0,0,0,0,0,0,0,0,0,0,0,0,0,0,0,0,0,0,0,0,0,0,0,0,0,0,0,0,0,0,0,0,0,0,0,0,0,0,0,0,0,0,0,0,0,0,0,0,0,0,-0.1658,-0.1659,0,-0.1764,-0.1766,-0.1767,-0.1834,-0.1835,-0.1835,-0.1835,-0.1912,-0.1914,-0.1916,0,0,0,0,0,0,0,0,0,0,0,0,0,-0.1515,-0.1517,-0.1658,-0.1659,-0.1661,-0.1764,-0.1766,-0.1767,-0.1834,-0.1835,-0.1835,-0.1836,-0.1912,-0.1914,-0.1916,0,0,0,0,0,0,0,0,0,0,0,0,0,-0.1594,-0.1518,-0.1658,-0.1706,-0.1712,-0.1764,-0.1766,-0.1767,-0.1834,-0.1835,-0.1835,-0.1836,-0.1911,-0.1914,-0.1916,-0.192,0,0,-0.1924,-0.1925,0,0,0,0,0,0,0,0,-0.159,-0.16,-0.1698,-0.1703,-0.1709,-0.1787,-0.1744,-0.1817,-0.1834,-0.1788,-0.1835,-0.1836,-0.1867,-0.1873,-0.1893,-0.1924,-0.1927,-0.1924,-0.1926,-0.1927,-0.1927,0,0,0,0,0,0,0,-0.1584,-0.1595,-0.17,-0.1699,-0.1706,-0.1724,-0.1736,-0.1758,-0.1822,-0.1792,-0.1797,-0.1808,-0.187,-0.189,-0.1895,-0.1928,-0.1924,-0.1926,-0.1928,-0.1929,-0.2007,-0.2007,0,0,0,0,0,0,-0.1571,-0.159,-0.1697,-0.1703,-0.165,-0.1726,-0.1739,-0.1761,-0.1823,-0.1833,-0.1808,-0.1811,-0.1885,-0.1892,-0.1898,-0.1973,-0.1927,-0.1929,-0.1931,-0.2006,-0.2007,-0.2007,0,0,0,0,0,0,-0.1567,-0.158,-0.1692,-0.1648,-0.1664,-0.1728,-0.1752,-0.1763,-0.1815,-0.1836,-0.1845,-0.1852,-0.1886,-0.1894,-0.1948,-0.1974,-0.193,-0.1933,-0.2006,-0.2006,-0.2007,-0.2081,0,0,0,0,0,0,-0.1563,-0.1578,-0.1602,-0.1648,-0.1666,-0.1742,-0.1752,-0.1765,-0.1819,-0.1825,-0.1875,-0.1882,-0.1887,-0.1944,-0.195,-0.1977,-0.1935,-0.2005,-0.2006,-0.2007,-0.2078,-0.2084,-0.2089,0,0,0,0,0,-0.1558,-0.1585,-0.1602,-0.1616,-0.1693,-0.1743,-0.1755,-0.1801,-0.1821,-0.1849,-0.1886,-0.1882,-0.1954,-0.1948,-0.1954,-0.1982,-0.2004,-0.2006,-0.2007,-0.2075,-0.2083,-0.2089,0,0,0,0,0,0,-0.1541,-0.1595,-0.1616,-0.1661,-0.1707,-0.1755,-0.1791,-0.1819,-0.1872,-0.1888,-0.1904,-0.1913,-0.1965,-0.196,-0.1952,-0.2002,-0.1972,-0.1975,-0.2021,-0.2029,-0.2035,-0.2002,-0.1937,0,0,0,0,0,-0.1545,-0.158,-0.1631,-0.1671,-0.1697,-0.1749,-0.1781,-0.1815,-0.186,-0.1887,-0.1923,-0.195,-0.1969,-0.1991,-0.2009,-0.2048,-0.2009,-0.2062,-0.2068,-0.2074,-0.2049,-0.2025,-0.2027,-0.2012,-0.2011,-0.2011,0,0,-0.1547,-0.1584,-0.1604,-0.1669,-0.1712,-0.1758,-0.1772,-0.1832,-0.1871,-0.1884,-0.196,-0.1981,-0.1984,-0.2028,-0.2048,-0.2033,-0.2059,-0.2075,-0.208,-0.2052,-0.2027,-0.2028,-0.2029,-0.2012,-0.2012,-0.2012,0,0,-0.1565,-0.1608,-0.1643,-0.1685,-0.1753,-0.1784,-0.1807,-0.1878,-0.1913,-0.1983,-0.1991,-0.2022,-0.2081,-0.2075,-0.2079,-0.2122,-0.2093,-0.2139,-0.2148,-0.2127,-0.2128,-0.2128,-0.209,-0.2086,-0.2141,-0.2141,-0.2141,0,-0.1569,-0.1618,-0.1661,-0.1709,-0.1743,-0.1799,-0.1842,-0.1886,-0.1967,-0.1985,-0.2017,-0.2074,-0.2091,-0.2102,-0.2122,-0.2135,-0.2115,-0.2129,-0.2135,-0.2134,-0.2133,-0.2094,-0.2088,-0.2145,-0.2145,-0.2144,-0.2144,0,-0.1608,-0.1656,-0.1684,-0.1757,-0.1799,-0.1848,-0.1906,-0.1958,-0.2012,-0.2044,-0.2093,-0.2121,-0.214,-0.216,-0.2163,-0.2162,-0.2148,-0.2149,-0.2118,-0.2139,-0.2096,-0.209,-0.215,-0.2149,-0.2148,-0.2147,0,0,-0.1594,-0.1689,-0.1703,-0.1737,-0.1827,-0.1862,-0.1927,-0.198,-0.2012,-0.2088,-0.2117,-0.2158,-0.2168,-0.2167,-0.2175,-0.2164,-0.2155,-0.2162,-0.2159,-0.2125,-0.2101,-0.197,-0.1949,-0.2171,-0.217,-0.217,-0.2079,0,-0.1613,-0.1686,-0.1735,-0.1806,-0.1844,-0.1906,-0.1954,-0.2009,-0.2062,-0.2109,-0.2125,-0.2162,-0.2171,-0.2192,-0.2182,-0.2165,-0.2139,-0.2178,-0.2083,-0.2079,-0.1961,-0.1937,-0.2167,-0.2073,-0.2072,-0.2071,-0.207,0,-0.1628,-0.1676,-0.1739,-0.1815,-0.1839,-0.1892,-0.1959,-0.2011,-0.207,-0.2111,-0.2139,-0.2162,-0.2159,-0.2172,-0.2124,-0.2156,-0.2122,-0.2104,-0.21,-0.1936,-0.1932,-0.2044,-0.2057,-0.2058,-0.2059,-0.2059,-0.206,0,-0.1568,-0.1671,-0.1714,-0.1746,-0.1846,-0.1884,-0.194,-0.2009,-0.2043,-0.2106,-0.2134,-0.2142,-0.2149,-0.2119,-0.2085,-0.2112,-0.202,-0.2049,-0.1885,-0.1876,-0.1994,-0.1994,-0.1985,-0.1985,-0.1986,-0.1986,-0.1986,0,-0.154,-0.158,-0.1696,-0.1719,-0.1774,-0.1857,-0.1911,-0.1969,-0.2037,-0.2049,-0.2123,-0.2107,-0.2139,-0.2099,-0.2069,-0.1936,-0.1997,-0.1854,-0.1832,-0.2029,-0.2034,-0.1989,-0.1991,-0.1982,-0.1983,-0.1984,-0.1984,0,-0.1453,-0.1531,-0.159,-0.1706,-0.1745,-0.1784,-0.1894,-0.1918,-0.2004,-0.2021,-0.2039,-0.2078,-0.2016,-0.2015,-0.1952,-0.1886,-0.1797,-0.1733,-0.1921,-0.1918,-0.1675,-0.1682,-0.1536,-0.153,-0.1525,-0.1521,-0.1518,0,-0.1404,-0.1428,-0.1563,-0.1597,-0.1653,-0.173,-0.177,-0.1883,-0.1901,-0.1962,-0.1941,-0.193,-0.193,-0.1723,-0.1748,-0.1656,-0.164,-0.1589,-0.1642,-0.1629,-0.1624,-0.1638,-0.1651,-0.151,-0.1509,-0.1508,-0.1507,0,-0.1309,-0.1374,-0.1422,-0.1499,-0.1558,-0.1612,-0.1678,-0.1678,-0.1773,-0.1868,-0.178,-0.1732,-0.1654,-0.16,-0.1539,-0.1481,-0.1626,-0.1539,-0.155,-0.1599,-0.1597,-0.1599,-0.1618,-0.149,-0.1492,-0.1494,-0.1495,0,-0.1234,-0.1248,-0.1325,-0.1376,-0.1448,-0.146,-0.1519,-0.1523,-0.1556,-0.1636,-0.1583,-0.1576,-0.1612,-0.1503,-0.1439,-0.1378,-0.1366,-0.1333,-0.1354,-0.1373,-0.1363,-0.1339,-0.1101,0,0,0,0,0,-0.1151,-0.115,-0.1193,-0.1239,-0.1305,-0.1343,-0.1435,-0.1493,-0.1581,-0.1473,-0.153,-0.1448,-0.1352,-0.1348,-0.1248,-0.1369,-0.138,-0.1247,-0.1356,-0.1397,-0.1417,-0.1422,0,0,0,0,0,0,-0.1091,-0.1123,-0.1145,-0.1112,-0.111,-0.1162,-0.1213,-0.1279,-0.1235,-0.1326,-0.1276,-0.1345,-0.1273,-0.1368,-0.1206,-0.1207,-0.1244,-0.1259,-0.1254,-0.1386,-0.1404,-0.1419,-0.1431,0,0,0,0,0]},{"header":{"parameterUnit":"m.s-1","parameterCategory":2,"la1":30.2991,"la2":30.254,"lo1":-89.0895,"lo2":-89.0444,"dy":0.0017,"dx":0.0017,"nx":28,"ny":28,"refTime":"2024-03-29T21:00:00:Z","depth":"4","parameterNumber":3,"parameterNumberName":"V-component_of_CURRENTS"},"data":[0,0,0,0,0,0,0,0,0,0,0,0,0,0,0,0,0,0,0,0,0,0,0,0,0,0,0,0,0,0,0,0,0,0,0,0,0,0,0,0,0,0,0,0,0,0,0,0,0,0,0,0,0,0,0,0,0,0,-0.0446,-0.0446,0,-0.0418,-0.0418,-0.0417,-0.0394,-0.0394,-0.0393,-0.0393,-0.0342,-0.0341,-0.034,0,0,0,0,0,0,0,0,0,0,0,0,0,-0.0451,-0.0451,-0.0446,-0.0446,-0.0445,-0.0418,-0.0418,-0.0417,-0.0394,-0.0394,-0.0393,-0.0393,-0.0343,-0.0342,-0.034,0,0,0,0,0,0,0,0,0,0,0,0,0,-0.0439,-0.0451,-0.0446,-0.043,-0.0428,-0.0418,-0.0418,-0.0417,-0.0394,-0.0394,-0.0393,-0.0393,-0.0343,-0.0342,-0.034,-0.0339,0,0,-0.0335,-0.0334,0,0,0,0,0,0,0,0,-0.044,-0.0439,-0.0433,-0.0431,-0.0429,-0.0409,-0.0401,-0.039,-0.0394,-0.0408,-0.0393,-0.0393,-0.0362,-0.0359,-0.0356,-0.0337,-0.0335,-0.0335,-0.0334,-0.0333,-0.0333,0,0,0,0,0,0,0,-0.0441,-0.044,-0.0436,-0.0433,-0.043,-0.0414,-0.0412,-0.0399,-0.0388,-0.0407,-0.0405,-0.0401,-0.0361,-0.0358,-0.0355,-0.0334,-0.0335,-0.0334,-0.0333,-0.0332,-0.0309,-0.0309,0,0,0,0,0,0,-0.0445,-0.0441,-0.0437,-0.0435,-0.0433,-0.0415,-0.0413,-0.0416,-0.0389,-0.0384,-0.0401,-0.04,-0.0361,-0.0357,-0.0353,-0.0333,-0.0333,-0.0332,-0.0331,-0.0308,-0.0309,-0.0309,0,0,0,0,0,0,-0.0446,-0.0445,-0.0438,-0.0436,-0.0434,-0.0415,-0.0419,-0.0416,-0.0415,-0.0385,-0.038,-0.0404,-0.036,-0.0355,-0.0344,-0.0331,-0.0331,-0.033,-0.0308,-0.0308,-0.0309,-0.0304,0,0,0,0,0,0,-0.0446,-0.0446,-0.0456,-0.0437,-0.0434,-0.0436,-0.0419,-0.0416,-0.0413,-0.0411,-0.0386,-0.038,-0.0359,-0.0346,-0.0342,-0.0329,-0.0328,-0.0308,-0.0308,-0.0309,-0.0304,-0.0305,-0.0305,0,0,0,0,0,-0.0446,-0.046,-0.0457,-0.0457,-0.0447,-0.0436,-0.0434,-0.0418,-0.0414,-0.0416,-0.0399,-0.0381,-0.0347,-0.0345,-0.034,-0.0327,-0.0307,-0.0308,-0.0309,-0.0304,-0.0304,-0.0305,0,0,0,0,0,0,-0.0466,-0.0458,-0.0455,-0.0465,-0.0454,-0.0432,-0.0435,-0.0425,-0.0414,-0.0415,-0.0386,-0.0379,-0.0365,-0.0354,-0.0353,-0.0325,-0.0324,-0.0324,-0.0322,-0.0323,-0.0323,-0.0319,-0.0327,0,0,0,0,0,-0.0476,-0.0487,-0.047,-0.048,-0.0476,-0.0459,-0.0455,-0.0444,-0.0429,-0.0424,-0.0404,-0.0385,-0.0365,-0.0351,-0.0338,-0.0323,-0.0297,-0.0313,-0.0313,-0.0313,-0.0309,-0.0258,-0.0252,-0.0312,-0.0312,-0.0312,0,0,-0.0487,-0.0485,-0.0491,-0.0486,-0.0477,-0.0471,-0.0456,-0.0453,-0.0445,-0.0421,-0.0408,-0.0389,-0.0364,-0.0344,-0.0336,-0.0332,-0.0286,-0.0314,-0.0315,-0.0309,-0.0258,-0.0251,-0.0246,-0.0312,-0.0312,-0.0312,0,0,-0.0505,-0.0512,-0.0521,-0.0514,-0.0504,-0.0491,-0.0492,-0.0473,-0.0462,-0.0451,-0.0426,-0.0397,-0.0381,-0.0343,-0.0326,-0.0323,-0.0295,-0.0328,-0.0317,-0.0268,-0.0262,-0.0256,-0.0224,-0.0216,-0.0322,-0.0322,-0.0322,0,-0.0517,-0.0527,-0.0521,-0.0522,-0.0517,-0.05,-0.05,-0.0486,-0.0464,-0.0451,-0.0451,-0.04,-0.0373,-0.0327,-0.0322,-0.0319,-0.0299,-0.0313,-0.0266,-0.026,-0.0254,-0.0222,-0.0213,-0.0322,-0.0322,-0.0322,-0.0322,0,-0.0533,-0.0542,-0.0547,-0.0542,-0.0536,-0.0537,-0.0513,-0.0506,-0.0494,-0.047,-0.0437,-0.0399,-0.0363,-0.0348,-0.0331,-0.0277,-0.028,-0.0274,-0.0259,-0.0247,-0.0216,-0.0206,-0.0322,-0.0322,-0.0322,-0.0322,0,0,-0.0556,-0.0558,-0.0561,-0.0564,-0.0548,-0.0546,-0.0532,-0.0508,-0.0498,-0.0466,-0.0441,-0.0386,-0.0361,-0.034,-0.0309,-0.0258,-0.0194,-0.025,-0.0248,-0.0209,-0.0098,-0.0114,-0.0105,-0.0181,-0.0179,-0.0178,-0.0094,0,-0.0569,-0.0584,-0.0575,-0.0582,-0.0586,-0.0565,-0.0554,-0.0529,-0.0505,-0.0477,-0.0419,-0.0391,-0.0359,-0.0344,-0.0284,-0.0223,-0.0168,-0.0218,-0.0123,-0.0121,-0.0128,-0.0094,-0.0172,-0.0087,-0.0084,-0.0083,-0.0082,0,-0.0582,-0.0594,-0.0608,-0.0607,-0.0606,-0.0607,-0.059,-0.0577,-0.0526,-0.0505,-0.0453,-0.0415,-0.0334,-0.0319,-0.0187,-0.0225,-0.0159,-0.0108,-0.0104,-0.0111,-0.0118,-0.01,-0.0064,-0.0065,-0.0066,-0.0068,-0.0069,0,-0.0606,-0.0614,-0.0631,-0.0631,-0.0626,-0.0629,-0.0625,-0.0588,-0.058,-0.0525,-0.0511,-0.0415,-0.0376,-0.0275,-0.017,-0.0176,-0.0034,-0.0029,0.0022,0.0021,0.0009,0.0002,0.0074,0.0074,0.0073,0.0073,0.0073,0,-0.0618,-0.0634,-0.0651,-0.0661,-0.0685,-0.0665,-0.0675,-0.0655,-0.0622,-0.0606,-0.0531,-0.0498,-0.0363,-0.0271,-0.0171,-0.0048,-0.003,0.0035,0.005,0.0005,-0.0003,0.0015,0.0007,0.0076,0.0076,0.0075,0.0074,0,-0.0634,-0.0645,-0.0672,-0.0688,-0.07,-0.0719,-0.0729,-0.073,-0.0693,-0.0671,-0.0657,-0.0552,-0.043,-0.0299,-0.0134,-0.0059,0.0062,0.0101,0.0034,0.0041,0.0085,0.0076,0.0174,0.0175,0.0175,0.0175,0.0175,0,-0.0639,-0.0659,-0.0707,-0.0737,-0.075,-0.0778,-0.0797,-0.0775,-0.077,-0.0702,-0.0689,-0.0576,-0.0493,-0.0267,-0.0136,0.0053,0.0078,0.0135,0.013,0.0095,0.01,0.009,0.0081,0.0176,0.0176,0.0176,0.0176,0,-0.0653,-0.068,-0.0708,-0.0776,-0.0814,-0.0848,-0.0868,-0.0865,-0.0824,-0.0798,-0.0695,-0.0571,-0.0435,-0.0264,-0.0123,0.0011,0.0096,0.0139,0.0139,0.0135,0.0098,0.01,0.0091,0.0177,0.0177,0.0177,0.0177,0,-0.0667,-0.0699,-0.0748,-0.0801,-0.0862,-0.0893,-0.0898,-0.0872,-0.0854,-0.0765,-0.0735,-0.0575,-0.0481,-0.0286,-0.0156,-0.0027,0.001,0.0051,0.0057,0.0058,-0.0005,-0.0071,-0.0018,0,0,0,0,0,-0.0669,-0.0709,-0.0767,-0.0828,-0.0889,-0.0915,-0.0934,-0.0923,-0.0884,-0.0812,-0.0764,-0.063,-0.0413,-0.0322,-0.0192,-0.0166,0.0013,-0.0012,0.0059,0.0182,0.0181,0.0125,0,0,0,0,0,0,-0.0674,-0.0732,-0.0764,-0.0838,-0.088,-0.0936,-0.0944,-0.0917,-0.0862,-0.0804,-0.0687,-0.061,-0.0403,-0.0487,-0.0193,-0.0155,-0.0094,0.0091,0.0094,0.0183,0.0182,0.0181,0.0123,0,0,0,0,0]}]]